Time,TemperatureF,DewpointF,PressureIn,WindDirection,WindDirectionDegrees,WindSpeedMPH,WindSpeedGustMPH,Humidity,HourlyPrecipIn,Conditions,Clouds,dailyrainin,SoftwareType,DateUTC
2015-05-27 00:01:00,65.3,59.9,30.03,North,0,0.0,0.0,83,0.00,,,0.00,WUHU216HW,2015-05-27 04:01:00,
2015-05-27 00:06:00,65.1,59.8,30.03,North,0,0.0,0.0,83,0.00,,,0.00,WUHU216HW,2015-05-27 04:06:00,
2015-05-27 00:16:00,65.1,59.8,30.03,North,0,0.0,0.0,83,0.00,,,0.00,WUHU216HW,2015-05-27 04:16:00,
2015-05-27 00:21:00,64.9,59.6,30.03,North,0,0.0,0.0,83,0.00,,,0.00,WUHU216HW,2015-05-27 04:21:00,
2015-05-27 00:26:00,64.9,59.6,30.03,North,0,0.0,0.0,83,0.00,,,0.00,WUHU216HW,2015-05-27 04:26:00,
2015-05-27 00:31:00,64.7,59.4,30.03,North,0,0.0,0.0,83,0.00,,,0.00,WUHU216HW,2015-05-27 04:31:00,
2015-05-27 00:36:00,64.5,59.2,30.03,North,0,0.0,0.0,83,0.00,,,0.00,WUHU216HW,2015-05-27 04:36:00,
2015-05-27 00:41:00,64.5,59.2,30.03,North,0,0.0,0.0,83,0.00,,,0.00,WUHU216HW,2015-05-27 04:41:00,
2015-05-27 00:46:00,64.4,59.1,30.03,North,0,0.0,0.0,83,0.00,,,0.00,WUHU216HW,2015-05-27 04:46:00,
2015-05-27 00:51:00,64.2,59.2,30.03,North,0,0.0,0.0,84,0.00,,,0.00,WUHU216HW,2015-05-27 04:51:00,
2015-05-27 00:56:00,64.2,59.2,30.03,North,0,0.0,0.0,84,0.00,,,0.00,WUHU216HW,2015-05-27 04:56:00,
2015-05-27 01:01:00,64.2,59.2,30.03,North,0,0.0,0.0,84,0.00,,,0.00,WUHU216HW,2015-05-27 05:01:00,
2015-05-27 01:06:00,64.0,59.1,30.04,North,0,0.0,0.0,84,0.00,,,0.00,WUHU216HW,2015-05-27 05:06:00,
2015-05-27 01:11:00,64.0,59.1,30.04,North,0,0.0,0.0,84,0.00,,,0.00,WUHU216HW,2015-05-27 05:11:00,
2015-05-27 01:16:00,63.8,58.9,30.04,North,0,0.0,0.0,84,0.00,,,0.00,WUHU216HW,2015-05-27 05:16:00,
2015-05-27 01:21:00,63.6,59.0,30.04,North,0,0.0,0.0,85,0.00,,,0.00,WUHU216HW,2015-05-27 05:21:00,
2015-05-27 01:26:00,63.6,59.0,30.04,North,0,0.0,0.0,85,0.00,,,0.00,WUHU216HW,2015-05-27 05:26:00,
2015-05-27 01:31:00,63.6,59.0,30.04,North,0,0.0,0.0,85,0.00,,,0.00,WUHU216HW,2015-05-27 05:31:00,
2015-05-27 01:35:00,63.6,59.0,30.04,North,0,0.0,0.0,85,0.00,,,0.00,WUHU216HW,2015-05-27 05:35:00,
2015-05-27 01:40:00,63.6,59.0,30.04,North,0,0.0,0.0,85,0.00,,,0.00,WUHU216HW,2015-05-27 05:40:00,
2015-05-27 01:45:00,63.6,59.0,30.04,North,0,0.0,0.0,85,0.00,,,0.00,WUHU216HW,2015-05-27 05:45:00,
2015-05-27 01:50:00,63.6,59.4,30.04,North,0,0.0,0.0,86,0.00,,,0.00,WUHU216HW,2015-05-27 05:50:00,
2015-05-27 01:55:00,63.6,59.4,30.03,North,0,0.0,0.0,86,0.00,,,0.00,WUHU216HW,2015-05-27 05:55:00,
2015-05-27 02:00:00,63.5,59.2,30.03,North,0,0.0,0.0,86,0.00,,,0.00,WUHU216HW,2015-05-27 06:00:00,
2015-05-27 02:05:00,63.5,59.2,30.03,North,0,0.0,0.0,86,0.00,,,0.00,WUHU216HW,2015-05-27 06:05:00,
2015-05-27 02:10:00,63.5,59.2,30.04,North,0,0.0,0.0,86,0.00,,,0.00,WUHU216HW,2015-05-27 06:10:00,
2015-05-27 02:15:00,63.5,59.2,30.04,North,0,0.0,0.0,86,0.00,,,0.00,WUHU216HW,2015-05-27 06:15:00,
2015-05-27 02:20:00,63.3,59.0,30.03,North,0,0.0,0.0,86,0.00,,,0.00,WUHU216HW,2015-05-27 06:20:00,
2015-05-27 02:25:00,63.3,59.0,30.03,North,0,0.0,0.0,86,0.00,,,0.00,WUHU216HW,2015-05-27 06:25:00,
2015-05-27 02:30:00,63.3,59.0,30.03,North,0,0.0,0.0,86,0.00,,,0.00,WUHU216HW,2015-05-27 06:30:00,
2015-05-27 02:35:00,63.1,58.8,30.03,North,0,0.0,0.0,86,0.00,,,0.00,WUHU216HW,2015-05-27 06:35:00,
2015-05-27 02:40:00,63.1,58.8,30.03,North,0,0.0,0.0,86,0.00,,,0.00,WUHU216HW,2015-05-27 06:40:00,
2015-05-27 02:45:00,63.1,58.8,30.03,North,0,0.0,0.0,86,0.00,,,0.00,WUHU216HW,2015-05-27 06:45:00,
2015-05-27 02:50:00,63.1,58.8,30.03,North,0,0.0,0.0,86,0.00,,,0.00,WUHU216HW,2015-05-27 06:50:00,
2015-05-27 02:55:00,62.9,58.7,30.03,North,0,0.0,0.0,86,0.00,,,0.00,WUHU216HW,2015-05-27 06:55:00,
2015-05-27 03:00:00,62.9,58.7,30.03,North,0,0.0,0.0,86,0.00,,,0.00,WUHU216HW,2015-05-27 07:00:00,
2015-05-27 03:05:00,62.7,58.5,30.04,North,0,0.0,0.0,86,0.00,,,0.00,WUHU216HW,2015-05-27 07:05:00,
2015-05-27 03:10:00,62.7,58.8,30.04,North,0,0.0,0.0,87,0.00,,,0.00,WUHU216HW,2015-05-27 07:10:00,
2015-05-27 03:15:00,62.7,58.8,30.03,North,0,0.0,0.0,87,0.00,,,0.00,WUHU216HW,2015-05-27 07:15:00,
2015-05-27 03:20:00,62.6,58.6,30.03,North,0,0.0,0.0,87,0.00,,,0.00,WUHU216HW,2015-05-27 07:20:00,
2015-05-27 03:25:00,62.4,58.5,30.03,North,0,0.0,0.0,87,0.00,,,0.00,WUHU216HW,2015-05-27 07:25:00,
2015-05-27 03:30:00,62.4,58.5,30.03,North,0,0.0,0.0,87,0.00,,,0.00,WUHU216HW,2015-05-27 07:30:00,
2015-05-27 03:35:00,62.2,58.3,30.02,North,0,0.0,0.0,87,0.00,,,0.00,WUHU216HW,2015-05-27 07:35:00,
2015-05-27 03:40:00,62.2,58.3,30.02,North,0,0.0,0.0,87,0.00,,,0.00,WUHU216HW,2015-05-27 07:40:00,
2015-05-27 03:45:00,62.0,58.1,30.02,North,0,0.0,0.0,87,0.00,,,0.00,WUHU216HW,2015-05-27 07:45:00,
2015-05-27 03:50:00,61.8,57.9,30.03,North,0,0.0,0.0,87,0.00,,,0.00,WUHU216HW,2015-05-27 07:50:00,
2015-05-27 03:55:00,61.7,57.8,30.03,North,0,0.0,0.0,87,0.00,,,0.00,WUHU216HW,2015-05-27 07:55:00,
2015-05-27 04:00:00,61.7,57.8,30.03,North,0,0.0,0.0,87,0.00,,,0.00,WUHU216HW,2015-05-27 08:00:00,
2015-05-27 04:05:00,61.5,57.6,30.02,North,0,0.0,0.0,87,0.00,,,0.00,WUHU216HW,2015-05-27 08:05:00,
2015-05-27 04:10:00,61.5,57.6,30.03,North,0,0.0,0.0,87,0.00,,,0.00,WUHU216HW,2015-05-27 08:10:00,
2015-05-27 04:15:00,61.3,57.4,30.03,North,0,0.0,0.0,87,0.00,,,0.00,WUHU216HW,2015-05-27 08:15:00,
2015-05-27 04:20:00,61.3,57.4,30.04,North,0,0.0,0.0,87,0.00,,,0.00,WUHU216HW,2015-05-27 08:20:00,
2015-05-27 04:25:00,61.3,57.7,30.04,North,0,0.0,0.0,88,0.00,,,0.00,WUHU216HW,2015-05-27 08:25:00,
2015-05-27 04:30:00,61.3,57.7,30.04,North,0,0.0,0.0,88,0.00,,,0.00,WUHU216HW,2015-05-27 08:30:00,
2015-05-27 04:35:00,61.1,57.6,30.04,North,0,0.0,0.0,88,0.00,,,0.00,WUHU216HW,2015-05-27 08:35:00,
2015-05-27 04:40:00,61.1,57.6,30.04,North,0,0.0,0.0,88,0.00,,,0.00,WUHU216HW,2015-05-27 08:40:00,